Flag for Russia Weather past 2 weeks in Surgut, Russia

Now
37 °F

Light rain. Low clouds.


Feels Like: 29 °F
Forecast: 29 / 37 °F
Wind: 13 mph from Southwest

Location: Surgut Airport

Current Time: Apr 26, 2015 at 10:25:24 AM

Latest Report: Apr 26, 2015 at 10:00 AM


Visibility: 4 mi

Pressure: 29.12 "Hg

Humidity: 93%

Dew point: 36 °F

Location of SurgutLocation

Historic Weather in Surgut — Graph

°F

Surgut temperature yesterday

Maximum temperature yesterday: 41 °F (at 10:30 AM)
Minimum temperature yesterday: 32 °F (at 4:00 AM)
Average temperature yesterday: 38 °F

Past Weeks' High & Low Weather Summary

 TemperatureHumidityPressure
High54 °F (Apr 22, 12:30 PM)100% (Apr 13, 10:00 AM)29.98 "Hg (Apr 13, 10:00 AM)
Low21 °F (Apr 16, 11:30 PM)34% (Apr 12, 4:00 PM)29.12 "Hg (Apr 26, 3:30 AM)
Average36 °F80%29.57 "Hg
* Reported Apr 11 9:00 AM — Apr 26 9:30 AM, Surgut, Weather by CustomWeather, © 2015

Note: Actual official high and low records may vary slightly from our data, if they occured in-between our weather recording intervals... More about our weather records

Advertising

Surgut weather history for previous 24 hours

 ConditionsComfort  
Time TempWeatherWind HumidityBarometerVisibility
9:30 AM
Sun, Apr 26
37 °FLight rain. Low clouds.13 mph93%29.12 "Hg4 mi
9:00 AM37 °FLight rain. Fog.13 mph93%29.12 "Hg3 mi
8:30 AM37 °FLight rain. Low clouds.13 mph93%29.12 "Hg4 mi
8:00 AM37 °FLight rain. Low clouds.13 mph93%29.12 "Hg4 mi
7:30 AM37 °FLight rain. Low clouds.10 mph93%29.12 "Hg4 mi
7:00 AM37 °FLow clouds.10 mph93%29.12 "Hg4 mi
6:30 AM36 °FLow clouds.10 mph93%29.12 "Hg4 mi
6:00 AM36 °FLow clouds.10 mph93%29.12 "Hg4 mi
5:30 AM36 °FLow clouds.13 mph93%29.12 "Hg4 mi
5:00 AM36 °FLight rain. Low clouds.8 mph93%29.12 "Hg4 mi
4:30 AM36 °FLight rain. Low clouds.8 mph93%29.12 "Hg4 mi
4:00 AM36 °FLow clouds.10 mph93%29.12 "Hg4 mi
3:30 AM36 °FLow clouds.10 mph93%29.12 "Hg4 mi
3:00 AM36 °FLow clouds.10 mph100%29.15 "Hg4 mi
2:00 AM36 °FLow clouds.8 mph100%29.15 "Hg4 mi
1:30 AM36 °FLight rain. Fog.6 mph100%29.15 "Hg2 mi
1:00 AM36 °FLight rain. Fog.10 mph100%29.15 "Hg2 mi
12:30 AM37 °FLight rain. Low clouds.8 mph93%29.15 "Hg4 mi
12:00 AM36 °FLow clouds.6 mph100%29.18 "Hg4 mi
11:30 PM
Sat, Apr 25
37 °FLow clouds.6 mph93%29.18 "Hg4 mi
11:00 PM37 °FPartly cloudy.6 mph93%29.18 "Hg4 mi
10:30 PM37 °FPartly cloudy.8 mph93%29.18 "Hg4 mi
10:00 PM37 °FPassing clouds.8 mph93%29.18 "Hg4 mi
9:30 PM39 °FPassing clouds.8 mph87%29.18 "Hg4 mi
9:00 PM39 °FPassing clouds.8 mph87%29.18 "Hg4 mi
8:30 PM39 °FScattered clouds.8 mph93%29.18 "Hg4 mi
8:00 PM39 °FBroken clouds.6 mph93%29.18 "Hg4 mi
7:30 PM41 °FBroken clouds.6 mph87%29.18 "Hg4 mi
7:00 PM41 °FBroken clouds.8 mph87%29.21 "Hg4 mi
6:30 PM41 °FPartly sunny.8 mph87%29.21 "Hg4 mi
6:00 PM41 °FBroken clouds.10 mph87%29.21 "Hg4 mi
5:30 PM41 °FPartly sunny.8 mph87%29.21 "Hg4 mi
5:00 PM39 °FLow clouds.13 mph93%29.21 "Hg4 mi
4:30 PM39 °FLow clouds.10 mph93%29.21 "Hg4 mi
4:00 PM39 °FLow clouds.13 mph93%29.21 "Hg4 mi
3:30 PM41 °FLight rain. Mostly cloudy.13 mph87%29.24 "Hg4 mi
3:00 PM41 °FLight rain. Mostly cloudy.13 mph93%29.24 "Hg4 mi
2:30 PM41 °FLight rain. Mostly cloudy.13 mph93%29.24 "Hg4 mi
2:00 PM41 °FSprinkles. Scattered clouds.13 mph93%29.24 "Hg4 mi
1:30 PM41 °FSprinkles. Scattered clouds.13 mph93%29.24 "Hg4 mi
1:00 PM41 °FSprinkles. Scattered clouds.10 mph93%29.27 "Hg4 mi
12:30 PM41 °FSprinkles. Scattered clouds.13 mph93%29.27 "Hg4 mi
12:00 PM41 °FSprinkles. Scattered clouds.10 mph93%29.30 "Hg4 mi
11:30 AM41 °FSprinkles. Mostly cloudy.10 mph87%29.30 "Hg4 mi
11:00 AM41 °FSprinkles. Mostly cloudy.10 mph87%29.33 "Hg4 mi
10:30 AM41 °FMostly cloudy.10 mph87%29.36 "Hg4 mi
10:00 AM39 °FLight rain. Mostly cloudy.13 mph87%29.36 "Hg4 mi
Weather by CustomWeather, © 2015

See weather overviewHow to use our weather pages